CW0060 Weather Reports


Display with metric or nautical units.
time (UTC)temp
F
wind
direction
speed
MPH
gust
MPH
rain 1hr
in
rain 24hr
in
rain mn
in
humidity
%
barometer
mb
20260510164205 69 37 2.0 5.0 0.00 0.00 0.00 64 1005.5
20260510163705 69 37 2.0 4.0 0.00 0.00 0.00 65 1005.7
20260510163206 69 28 2.0 5.0 0.00 0.00 0.00 65 1005.7
20260510162705 69 34 2.0 5.0 0.00 0.00 0.00 64 1005.8
20260510162206 69 46 2.0 5.0 0.00 0.00 0.00 62 1006.0
20260510161727 70 53 2.0 5.0 0.00 0.00 0.00 62 1006.0
20260510160705 71 11 2.0 6.0 0.00 0.00 0.00 59 1006.1
20260510155205 72 53 3.0 7.0 0.00 0.00 0.00 54 1006.4
20260510154705 73 1 3.0 7.0 0.00 0.00 0.00 54 1006.3
20260510154206 73 340 3.0 7.0 0.00 0.00 0.00 55 1006.4
20260510153206 71 75 3.0 5.0 0.00 0.00 0.00 55 1006.5
20260510152705 71 30 2.0 8.0 0.00 0.00 0.00 54 1006.7
20260510152206 72 1 3.0 8.0 0.00 0.00 0.00 55 1006.7
20260510151705 73 74 4.0 8.0 0.00 0.00 0.00 52 1006.8
20260510151205 75 39 3.0 7.0 0.00 0.00 0.00 49 1006.8
20260510150705 75 89 3.0 7.0 0.00 0.00 0.00 50 1006.9
20260510150205 75 72 3.0 6.0 0.00 0.00 0.00 51 1006.9
20260510145705 75 269 3.0 6.0 0.00 0.00 0.00 49 1007.1
20260510145206 75 89 3.0 6.0 0.00 0.00 0.00 48 1007.2
20260510144706 75 82 3.0 8.0 0.00 0.00 0.00 49 1007.3
20260510144205 76 13 3.0 9.0 0.00 0.00 0.00 51 1007.3
20260510143705 75 99 3.0 9.0 0.00 0.00 0.00 49 1007.4
20260510143205 75 158 4.0 9.0 0.00 0.00 0.00 50 1007.6
20260510142206 75 55 4.0 10.0 0.00 0.00 0.00 49 1007.5
20260510141705 76 344 4.0 10.0 0.00 0.00 0.00 48 1007.6
20260510141205 75 46 4.0 9.0 0.00 0.00 0.00 49 1007.6
20260510140705 75 110 3.0 6.0 0.00 0.00 0.00 54 1007.5
20260510140208 74 101 2.0 6.0 0.00 0.00 0.00 54 1007.6
20260510135705 73 178 3.0 6.0 0.00 0.00 0.00 52 1007.6
20260510135206 73 108 3.0 7.0 0.00 0.00 0.00 53 1007.7
20260510134706 72 39 3.0 8.0 0.00 0.00 0.00 52 1007.8
20260510134206 72 257 4.0 8.0 0.00 0.00 0.00 49 1007.8
20260510133705 72 89 4.0 10.0 0.00 0.00 0.00 53 1007.7
20260510133206 73 186 4.0 10.0 0.00 0.00 0.00 54 1007.9
20260510132705 74 110 3.0 7.0 0.00 0.00 0.00 49 1008.1
20260510132205 75 89 4.0 12.0 0.00 0.00 0.00 52 1008.2
20260510131704 75 72 5.0 12.0 0.00 0.00 0.00 51 1008.2
20260510131205 75 107 5.0 10.0 0.00 0.00 0.00 48 1008.3
20260510130705 75 79 4.0 8.0 0.00 0.00 0.00 52 1008.5
20260510125705 73 89 3.0 7.0 0.00 0.00 0.00 55 1008.5
20260510125205 72 42 3.0 6.0 0.00 0.00 0.00 58 1008.6
20260510124709 71 178 3.0 9.0 0.00 0.00 0.00 54 1008.7
20260510123705 73 11 4.0 10.0 0.00 0.00 0.00 58 1008.6
20260510123205 73 46 3.0 10.0 0.00 0.00 0.00 52 1008.9
20260510122714 74 110 3.0 10.0 0.00 0.00 0.00 54 1008.9
20260510121705 74 108 4.0 9.0 0.00 0.00 0.00 54 1009.0
20260510121205 73 46 4.0 9.0 0.00 0.00 0.00 54 1009.1
20260510120704 73 253 3.0 9.0 0.00 0.00 0.00 53 1009.2
20260510120205 74 138 3.0 9.0 0.00 0.00 0.00 58 1009.2
20260510115705 73 6 4.0 10.0 0.00 0.00 0.00 58 1009.4
20260510115205 72 55 5.0 10.0 0.00 0.00 0.00 57 1009.4
20260510114705 73 111 5.0 8.0 0.00 0.00 0.00 54 1009.5
20260510114206 73 13 4.0 8.0 0.00 0.00 0.00 56 1009.5
20260510113705 73 76 4.0 10.0 0.00 0.00 0.00 59 1009.6
20260510113205 71 76 4.0 10.0 0.00 0.00 0.00 59 1009.7
20260510112705 72 117 4.0 10.0 0.00 0.00 0.00 56 1009.8
20260510112206 71 86 4.0 10.0 0.00 0.00 0.00 59 1009.9
20260510111705 71 127 4.0 8.0 0.00 0.00 0.00 56 1010.0
20260510111205 71 63 4.0 9.0 0.00 0.00 0.00 59 1009.9
20260510110705 71 89 4.0 9.0 0.00 0.00 0.00 58 1010.1
20260510110205 71 96 3.0 8.0 0.00 0.00 0.00 57 1010.2
20260510105706 70 98 3.0 8.0 0.00 0.00 0.00 62 1010.3
20260510104706 70 28 4.0 8.0 0.00 0.00 0.00 56 1010.3
20260510104205 70 102 4.0 8.0 0.00 0.00 0.00 59 1010.3
20260510103706 70 109 3.0 11.0 0.00 0.00 0.00 59 1010.4
20260510103205 69 77 5.0 11.0 0.00 0.00 0.00 60 1010.4
20260510102705 70 123 5.0 11.0 0.00 0.00 0.00 59 1010.4
20260510102205 69 77 3.0 9.0 0.00 0.00 0.00 63 1010.4
20260510101705 69 65 4.0 10.0 0.00 0.00 0.00 64 1010.4
20260510101205 69 98 4.0 10.0 0.00 0.00 0.00 61 1010.5
20260510100205 68 79 5.0 8.0 0.00 0.00 0.00 65 1010.7
20260510095705 67 98 4.0 9.0 0.00 0.00 0.00 66 1010.8
20260510095205 68 20 4.0 9.0 0.00 0.00 0.00 66 1010.8
20260510094206 67 129 3.0 8.0 0.00 0.00 0.00 65 1011.0
20260510093705 66 89 3.0 8.0 0.00 0.00 0.00 65 1010.9
20260510093205 66 20 4.0 6.0 0.00 0.00 0.00 65 1011.1
20260510091705 65 65 3.0 9.0 0.00 0.00 0.00 65 1011.2
20260510091205 65 46 3.0 9.0 0.00 0.00 0.00 68 1011.3
20260510090706 65 32 3.0 9.0 0.00 0.00 0.00 67 1011.2
20260510090205 65 98 4.0 8.0 0.00 0.00 0.00 68 1011.2
20260510085706 64 135 3.0 6.0 0.00 0.00 0.00 72 1011.3
20260510085206 63 130 2.0 7.0 0.00 0.00 0.00 67 1011.4
20260510084705 63 32 3.0 8.0 0.00 0.00 0.00 70 1011.4
20260510084205 63 76 4.0 8.0 0.00 0.00 0.00 70 1011.3
20260510083705 63 50 3.0 6.0 0.00 0.00 0.00 71 1011.5
20260510083206 62 9 3.0 6.0 0.00 0.00 0.00 70 1011.5
20260510082704 62 349 3.0 7.0 0.00 0.00 0.00 71 1011.4
20260510081705 61 141 3.0 7.0 0.00 0.00 0.00 73 1011.6
20260510081206 61 35 3.0 7.0 0.00 0.00 0.00 74 1011.6
20260510080705 61 75 3.0 7.0 0.00 0.00 0.00 74 1011.7
20260510080205 61 63 3.0 7.0 0.00 0.00 0.00 74 1011.7
20260510075705 60 89 4.0 7.0 0.00 0.00 0.00 75 1011.7
20260510075206 60 127 3.0 7.0 0.00 0.00 0.00 77 1011.7
20260510074705 59 96 3.0 7.0 0.00 0.00 0.00 80 1011.8
20260510074205 58 151 3.0 8.0 0.00 0.00 0.00 83 1011.8
20260510073205 56 101 3.0 7.0 0.00 0.00 0.00 90 1011.9
20260510072705 55 65 3.0 7.0 0.00 0.00 0.00 91 1012.0
20260510072206 55 347 3.0 7.0 0.00 0.00 0.00 91 1012.0
20260510071705 54 63 3.0 7.0 0.00 0.00 0.00 91 1012.0
20260510071205 53 89 3.0 7.0 0.00 0.00 0.00 92 1012.0
20260510070705 53 138 3.0 7.0 0.00 0.00 0.00 92 1011.9
20260510070205 52 79 3.0 6.0 0.00 0.00 0.00 92 1011.9
20260510065206 52 50 2.0 5.0 0.00 0.00 0.00 91 1012.0
20260510064705 51 46 2.0 5.0 0.00 0.00 0.00 91 1012.0
20260510064205 51 63 2.0 5.0 0.00 0.00 0.00 91 1012.0
20260510062705 50 269 2.0 4.0 0.00 0.00 0.00 91 1011.9
20260510062206 50 108 1.0 2.0 0.00 0.00 0.00 91 1012.0
20260510060705 49 193 1.0 2.0 0.00 0.00 0.00 91 1012.0
20260510060214 49 89 1.0 2.0 0.00 0.00 0.00 90 1012.0
20260510055706 49 233 1.0 2.0 0.00 0.00 0.00 90 1012.2
20260510055205 48 212 0.0 2.0 0.00 0.00 0.00 90 1012.1
20260510054705 48 222 0.0 1.0 0.00 0.00 0.00 90 1012.3
20260510053706 48 314 0.0 1.0 0.00 0.00 0.00 90 1012.3
20260510053206 48 240 0.0 1.0 0.00 0.00 0.00 90 1012.2
20260510052704 48 222 0.0 2.0 0.00 0.00 0.00 90 1012.2
20260510052206 47 46 0.0 2.0 0.00 0.00 0.00 90 1012.2
20260510051705 47 314 0.0 1.0 0.00 0.00 0.00 89 1012.3
20260510050705 47 63 0.0 1.0 0.00 0.00 0.00 89 1012.2
20260510050206 47 178 0.0 1.0 0.00 0.00 0.00 89 1012.3
20260510045706 47 35 0.0 2.0 0.00 0.00 0.00 89 1012.4
20260510044705 47 135 1.0 2.0 0.00 0.00 0.00 89 1012.5
20260510043705 47 46 1.0 2.0 0.00 0.00 0.00 89 1012.5
20260510042705 47 63 0.0 1.0 0.00 0.00 0.00 89 1012.6
20260510042206 47 89 0.0 1.0 0.00 0.00 0.00 89 1012.6
20260510041705 47 89 0.0 1.0 0.00 0.00 0.00 89 1012.6
20260510041205 47 89 0.0 1.0 0.00 0.00 0.00 89 1012.7
20260510040705 47 89 0.0 1.0 0.00 0.00 0.00 89 1012.6
20260510040206 47 89 0.0 1.0 0.00 0.00 0.00 89 1012.6
20260510035705 47 89 0.0 1.0 0.00 0.00 0.00 89 1012.6
20260510035206 47 46 0.0 1.0 0.00 0.00 0.00 88 1012.7
20260510034705 47 46 0.0 1.0 0.00 0.00 0.00 88 1012.7
20260510034205 47 46 0.0 2.0 0.00 0.00 0.00 88 1012.7
20260510033705 47 46 1.0 2.0 0.00 0.00 0.00 88 1012.7
20260510033205 48 63 1.0 2.0 0.00 0.00 0.00 88 1012.8
20260510032205 48 46 0.0 1.0 0.00 0.00 0.00 88 1012.8
20260510031705 48 331 0.0 1.0 0.00 0.00 0.00 88 1012.8
20260510031205 48 1 0.0 0.0 0.00 0.00 0.00 88 1013.0
20260510030705 48 46 0.0 1.0 0.00 0.00 0.00 88 1013.0
20260510030206 48 314 0.0 1.0 0.00 0.00 0.00 88 1013.0
20260510025706 48 89 0.0 1.0 0.00 0.00 0.00 88 1012.8
20260510025206 48 135 0.0 1.0 0.00 0.00 0.00 88 1013.0
20260510024705 48 135 0.0 1.0 0.00 0.00 0.00 88 1013.0
20260510024206 48 46 0.0 1.0 0.00 0.00 0.00 88 1013.0
20260510023205 48 89 0.0 1.0 0.00 0.00 0.00 87 1013.1
20260510022205 48 89 0.0 1.0 0.00 0.00 0.00 87 1013.1
20260510021206 49 89 0.0 3.0 0.00 0.00 0.00 87 1013.2
20260510020705 49 46 1.0 4.0 0.00 0.00 0.00 87 1013.2
20260510020205 49 53 2.0 4.0 0.00 0.00 0.00 87 1013.2
20260510015705 49 39 2.0 3.0 0.00 0.00 0.00 87 1013.3
20260510015205 49 46 2.0 3.0 0.00 0.00 0.00 87 1013.3
20260510014705 49 35 2.0 3.0 0.00 0.00 0.00 87 1013.3
20260510014206 49 25 1.0 3.0 0.00 0.00 0.00 87 1013.3
20260510013705 49 68 2.0 3.0 0.00 0.00 0.00 87 1013.3
20260510013220 49 25 1.0 3.0 0.00 0.00 0.00 87 1013.3
20260510011705 49 23 0.0 2.0 0.00 0.00 0.00 86 1013.4
20260510011205 49 35 0.0 2.0 0.00 0.00 0.00 86 1013.4
20260510010235 49 1 1.0 2.0 0.00 0.00 0.00 86 1013.4
20260510005705 49 314 1.0 2.0 0.00 0.00 0.00 86 1013.5
20260510005205 50 40 1.0 2.0 0.00 0.00 0.00 86 1013.5
20260510004705 50 72 1.0 2.0 0.00 0.00 0.00 86 1013.4
20260510004206 50 46 1.0 2.0 0.00 0.00 0.00 86 1013.5
20260510003705 50 101 1.0 2.0 0.00 0.00 0.00 85 1013.5
20260510003205 50 63 1.0 2.0 0.00 0.00 0.00 85 1013.6
20260510002705 50 72 1.0 2.0 0.00 0.00 0.00 85 1013.6
20260510002206 50 28 1.0 3.0 0.00 0.00 0.00 85 1013.8
20260510001205 50 32 1.0 3.0 0.00 0.00 0.00 85 1014.0
20260510000205 51 1 1.0 3.0 0.00 0.00 0.00 85 1014.1
20260509235705 51 28 2.0 3.0 0.00 0.00 0.00 85 1014.1
20260509235206 51 21 2.0 3.0 0.00 0.00 0.00 85 1014.1
20260509234708 51 18 2.0 3.0 0.00 0.00 0.00 85 1014.1
20260509234206 51 46 1.0 2.0 0.00 0.00 0.00 84 1014.2
20260509233705 51 63 0.0 2.0 0.00 0.00 0.00 84 1014.2
20260509233204 51 222 1.0 3.0 0.00 0.00 0.00 84 1014.2
20260509232705 51 20 1.0 5.0 0.00 0.00 0.00 84 1014.2
20260509232205 51 336 1.0 5.0 0.00 0.00 0.00 83 1014.2
20260509231705 51 39 2.0 5.0 0.00 0.00 0.00 83 1014.3
20260509230705 51 331 2.0 3.0 0.00 0.00 0.00 83 1014.3
20260509225705 52 314 0.0 2.0 0.00 0.00 0.00 83 1014.3
20260509224705 52 222 0.0 1.0 0.00 0.00 0.00 82 1014.4
20260509224205 52 1 1.0 1.0 0.00 0.00 0.00 82 1014.4
20260509223705 52 269 0.0 1.0 0.00 0.00 0.00 82 1014.4
20260509223204 52 135 0.0 1.0 0.00 0.00 0.00 82 1014.4
20260509222705 52 46 0.0 1.0 0.00 0.00 0.00 82 1014.5
20260509222206 53 222 0.0 1.0 0.00 0.00 0.00 81 1014.5
20260509221706 53 269 0.0 1.0 0.00 0.00 0.00 81 1014.5
20260509221226 53 63 0.0 2.0 0.00 0.00 0.00 81 1014.5
20260509220705 53 178 1.0 2.0 0.00 0.00 0.00 81 1014.5
20260509220205 53 135 1.0 2.0 0.00 0.00 0.00 81 1014.5
20260509215705 53 46 0.0 2.0 0.00 0.00 0.00 80 1014.5
20260509215205 53 1 0.0 2.0 0.00 0.00 0.00 80 1014.6
20260509214706 53 269 1.0 2.0 0.00 0.00 0.00 79 1014.6
20260509214205 54 89 1.0 2.0 0.00 0.00 0.00 79 1014.6
20260509213704 54 112 0.0 1.0 0.00 0.00 0.00 79 1014.5
20260509212705 54 269 0.0 2.0 0.00 0.00 0.00 79 1014.7
20260509212206 54 46 0.0 2.0 0.00 0.00 0.00 78 1014.5
20260509211706 54 269 1.0 2.0 0.00 0.00 0.00 78 1014.6
20260509211205 55 240 1.0 2.0 0.00 0.00 0.00 78 1014.7
20260509210206 55 222 0.0 2.0 0.00 0.00 0.00 77 1014.4
20260509205705 55 46 1.0 2.0 0.00 0.00 0.00 77 1014.5
20260509205221 55 89 1.0 2.0 0.00 0.00 0.00 77 1014.3
20260509204705 56 124 1.0 2.0 0.00 0.00 0.00 76 1014.4
20260509203706 56 46 0.0 1.0 0.00 0.00 0.00 76 1014.4
20260509203205 56 46 0.0 1.0 0.00 0.00 0.00 75 1014.5
20260509202705 57 253 0.0 1.0 0.00 0.00 0.00 75 1014.4
20260509202205 57 46 0.0 2.0 0.00 0.00 0.00 75 1014.4
20260509201705 57 89 0.0 2.0 0.00 0.00 0.00 74 1014.5
20260509201205 57 46 1.0 2.0 0.00 0.00 0.00 74 1014.5
20260509200706 58 63 1.0 2.0 0.00 0.00 0.00 74 1014.6
20260509195710 58 117 0.0 1.0 0.00 0.00 0.00 72 1014.6
20260509195206 59 46 0.0 2.0 0.00 0.00 0.00 72 1014.6
20260509194706 59 46 0.0 3.0 0.00 0.00 0.00 71 1014.5
20260509194205 59 63 1.0 3.0 0.00 0.00 0.00 70 1014.5
20260509193205 60 40 2.0 4.0 0.00 0.00 0.00 70 1014.4
20260509192206 61 41 1.0 3.0 0.00 0.00 0.00 68 1014.5
20260509191705 61 67 1.0 3.0 0.00 0.00 0.00 67 1014.5
20260509191205 61 53 1.0 3.0 0.00 0.00 0.00 67 1014.4
20260509190705 62 1 1.0 4.0 0.00 0.00 0.00 66 1014.3
20260509185705 62 46 2.0 4.0 0.00 0.00 0.00 66 1014.2
20260509185205 62 68 2.0 5.0 0.00 0.00 0.00 66 1014.2
20260509184705 62 46 2.0 6.0 0.00 0.00 0.00 66 1014.1
20260509184205 62 63 3.0 6.0 0.00 0.00 0.00 67 1014.1
20260509183705 62 39 3.0 6.0 0.00 0.00 0.00 67 1014.1
20260509183206 63 74 3.0 6.0 0.00 0.00 0.00 67 1014.1
20260509182705 63 46 3.0 5.0 0.00 0.00 0.00 69 1014.1
20260509181705 63 56 3.0 5.0 0.00 0.00 0.00 70 1014.1
20260509180705 63 44 3.0 6.0 0.00 0.00 0.00 69 1014.1
20260509180205 64 51 3.0 6.0 0.00 0.00 0.00 69 1014.1
20260509175705 64 53 3.0 6.0 0.00 0.00 0.00 67 1014.1
20260509175206 65 49 3.0 6.0 0.00 0.00 0.00 66 1014.1
20260509174705 65 46 3.0 5.0 0.00 0.00 0.00 64 1014.1
20260509174205 66 56 3.0 5.0 0.00 0.00 0.00 65 1014.1
20260509173705 66 63 3.0 5.0 0.00 0.00 0.00 61 1014.1
20260509173205 67 63 3.0 5.0 0.00 0.00 0.00 60 1014.1
20260509172205 67 46 3.0 5.0 0.00 0.00 0.00 61 1014.1
20260509171705 68 74 2.0 5.0 0.00 0.00 0.00 57 1014.1
20260509171205 68 63 2.0 5.0 0.00 0.00 0.00 57 1014.2
20260509170205 68 51 3.0 7.0 0.00 0.00 0.00 55 1014.1
20260509165705 68 51 3.0 7.0 0.00 0.00 0.00 56 1014.1
20260509165205 69 51 3.0 6.0 0.00 0.00 0.00 55 1014.1